TimeHDT,TemperatureF,Dew PointF,Humidity,Sea Level PressureIn,VisibilityMPH,Wind Direction,Wind SpeedMPH,Gust SpeedMPH,PrecipitationIn,Events,Conditions,WindDirDegrees,DateUTC
12:16 AM,37.4,33.8,87,29.93,-9999.0,SE,20.7,28.8,N/A,,Overcast,130,2013-03-25 09:16:00
12:56 AM,37.4,33.8,87,29.90,-9999.0,SE,20.7,-,N/A,,Overcast,130,2013-03-25 09:56:00
1:16 AM,37.4,33.8,87,29.90,-9999.0,SE,18.4,25.3,N/A,,Overcast,130,2013-03-25 10:16:00
1:36 AM,37.4,33.8,87,29.88,-9999.0,ESE,24.2,28.8,N/A,,Overcast,120,2013-03-25 10:36:00
1:56 AM,37.4,35.6,93,29.85,-9999.0,SE,25.3,31.1,N/A,,Overcast,130,2013-03-25 10:56:00
2:16 AM,37.4,35.6,93,29.83,-9999.0,SE,24.2,31.1,N/A,,Overcast,130,2013-03-25 11:16:00
2:36 AM,37.4,35.6,93,29.81,-9999.0,SE,28.8,-,N/A,,Overcast,130,2013-03-25 11:36:00
2:56 AM,37.4,35.6,93,29.80,-9999.0,SE,25.3,29.9,N/A,,Overcast,130,2013-03-25 11:56:00
3:16 AM,39.2,35.6,87,29.79,-9999.0,SE,24.2,31.1,N/A,,Overcast,130,2013-03-25 12:16:00
3:36 AM,39.2,37.4,93,29.78,-9999.0,SE,19.6,25.3,N/A,,Overcast,130,2013-03-25 12:36:00
3:56 AM,39.2,37.4,93,29.77,-9999.0,SE,20.7,-,N/A,,Overcast,130,2013-03-25 12:56:00
4:16 AM,39.2,37.4,93,29.75,-9999.0,SE,20.7,-,N/A,,Overcast,130,2013-03-25 13:16:00
4:36 AM,39.2,37.4,93,29.74,-9999.0,ESE,18.4,-,N/A,,Overcast,120,2013-03-25 13:36:00
4:56 AM,39.2,39.2,100,29.73,-9999.0,ESE,15.0,-,N/A,,Overcast,120,2013-03-25 13:56:00
5:16 AM,39.2,37.4,93,29.72,-9999.0,SE,16.1,-,N/A,,Overcast,130,2013-03-25 14:16:00
5:36 AM,41.0,37.4,87,29.70,-9999.0,SE,12.7,-,N/A,,Overcast,130,2013-03-25 14:36:00
5:56 AM,41.0,37.4,87,29.68,-9999.0,SE,16.1,-,N/A,,Overcast,140,2013-03-25 14:56:00
6:16 AM,41.0,37.4,87,29.66,-9999.0,SE,16.1,-,N/A,,Overcast,130,2013-03-25 15:16:00
6:36 AM,41.0,39.2,93,29.66,-9999.0,SE,17.3,-,N/A,,Unknown,130,2013-03-25 15:36:00
6:56 AM,41.0,39.2,93,29.65,-9999.0,SE,17.3,-,N/A,,Overcast,140,2013-03-25 15:56:00
7:16 AM,41.0,37.4,87,29.65,-9999.0,SE,9.2,-,N/A,,Unknown,140,2013-03-25 16:16:00
7:36 AM,39.2,37.4,93,29.64,-9999.0,SSW,8.1,-,N/A,,Unknown,210,2013-03-25 16:36:00
7:56 AM,39.2,37.4,93,29.64,-9999.0,Calm,Calm,-,N/A,,Unknown,0,2013-03-25 16:56:00
8:16 AM,39.2,35.6,87,29.64,-9999.0,SW,8.1,-,N/A,,Overcast,220,2013-03-25 17:16:00
8:36 AM,39.2,35.6,87,29.63,-9999.0,SSW,9.2,-,N/A,,Overcast,210,2013-03-25 17:36:00
8:56 AM,39.2,35.6,87,29.63,-9999.0,SSW,6.9,-,N/A,,Overcast,200,2013-03-25 17:56:00
9:16 AM,39.2,35.6,87,29.63,-9999.0,South,9.2,-,N/A,,Overcast,170,2013-03-25 18:16:00
9:36 AM,39.2,35.6,87,29.63,-9999.0,SSE,4.6,-,N/A,,Unknown,150,2013-03-25 18:36:00
9:56 AM,39.2,35.6,87,29.63,-9999.0,Calm,Calm,-,N/A,,Unknown,0,2013-03-25 18:56:00
10:16 AM,39.2,37.4,93,29.63,-9999.0,Calm,Calm,-,N/A,,Unknown,0,2013-03-25 19:16:00
10:36 AM,39.2,37.4,93,29.62,-9999.0,South,5.8,-,N/A,,Unknown,190,2013-03-25 19:36:00
10:56 AM,39.2,35.6,87,29.62,-9999.0,South,5.8,-,N/A,,Unknown,180,2013-03-25 19:56:00
11:16 AM,39.2,35.6,87,29.62,-9999.0,Calm,Calm,-,N/A,,Unknown,0,2013-03-25 20:16:00
11:36 AM,39.2,35.6,87,29.62,-9999.0,SSW,8.1,-,N/A,,Overcast,210,2013-03-25 20:36:00
11:56 AM,39.2,33.8,81,29.62,-9999.0,South,4.6,-,N/A,,Overcast,190,2013-03-25 20:56:00
12:16 PM,39.2,33.8,81,29.62,-9999.0,SSE,4.6,-,N/A,,Overcast,160,2013-03-25 21:16:00
12:36 PM,39.2,35.6,87,29.62,-9999.0,South,4.6,-,N/A,,Overcast,170,2013-03-25 21:36:00
12:56 PM,39.2,33.8,81,29.61,-9999.0,Calm,Calm,-,N/A,,Overcast,0,2013-03-25 21:56:00
1:16 PM,39.2,33.8,81,29.61,-9999.0,SSW,5.8,-,N/A,,Overcast,200,2013-03-25 22:16:00
1:36 PM,41.0,33.8,76,29.60,-9999.0,SW,6.9,-,N/A,,Mostly Cloudy,220,2013-03-25 22:36:00
1:56 PM,41.0,33.8,76,29.61,-9999.0,SSW,6.9,-,N/A,,Overcast,200,2013-03-25 22:56:00
2:16 PM,41.0,33.8,76,29.60,-9999.0,SW,4.6,-,N/A,,Overcast,220,2013-03-25 23:16:00
2:36 PM,42.8,33.8,70,29.60,-9999.0,Calm,Calm,-,N/A,,Overcast,0,2013-03-25 23:36:00
2:56 PM,41.0,32.0,70,29.60,-9999.0,NNW,8.1,-,N/A,,Overcast,330,2013-03-25 23:56:00
3:16 PM,41.0,33.8,76,29.60,-9999.0,WNW,4.6,-,N/A,,Overcast,300,2013-03-26 00:16:00
3:36 PM,41.0,32.0,70,29.60,-9999.0,NW,8.1,-,N/A,,Overcast,320,2013-03-26 00:36:00
3:56 PM,41.0,33.8,76,29.60,-9999.0,NW,5.8,-,N/A,,Overcast,320,2013-03-26 00:56:00
4:16 PM,42.8,32.0,66,29.60,-9999.0,WNW,6.9,-,N/A,,Overcast,290,2013-03-26 01:16:00
4:36 PM,41.0,33.8,76,29.60,-9999.0,NW,6.9,-,N/A,,Overcast,310,2013-03-26 01:36:00
4:56 PM,41.0,33.8,76,29.61,-9999.0,West,6.9,-,N/A,,Overcast,270,2013-03-26 01:56:00
5:16 PM,42.8,35.6,76,29.61,-9999.0,East,4.6,-,N/A,,Overcast,100,2013-03-26 02:16:00
5:36 PM,39.2,35.6,87,29.61,-9999.0,East,9.2,-,N/A,,Mostly Cloudy,100,2013-03-26 02:36:00
5:56 PM,39.2,33.8,81,29.63,-9999.0,SE,5.8,-,N/A,,Overcast,130,2013-03-26 02:56:00
6:16 PM,39.2,33.8,81,29.63,-9999.0,Calm,Calm,-,N/A,,Overcast,0,2013-03-26 03:16:00
6:36 PM,39.2,33.8,81,29.63,-9999.0,SE,8.1,-,N/A,,Overcast,130,2013-03-26 03:36:00
6:56 PM,39.2,35.6,87,29.64,-9999.0,SE,6.9,-,N/A,,Overcast,140,2013-03-26 03:56:00
7:16 PM,39.2,35.6,87,29.65,-9999.0,ESE,5.8,-,N/A,,Overcast,120,2013-03-26 04:16:00
7:36 PM,39.2,33.8,81,29.66,-9999.0,West,10.4,-,N/A,,Overcast,270,2013-03-26 04:36:00
7:56 PM,39.2,35.6,87,29.67,-9999.0,West,9.2,-,N/A,,Unknown,270,2013-03-26 04:56:00
8:16 PM,39.2,33.8,81,29.68,-9999.0,West,10.4,-,N/A,,Overcast,260,2013-03-26 05:16:00
8:36 PM,39.2,35.6,87,29.68,-9999.0,West,11.5,-,N/A,,Overcast,270,2013-03-26 05:36:00
8:56 PM,39.2,33.8,81,29.70,-9999.0,West,11.5,-,N/A,,Overcast,270,2013-03-26 05:56:00
9:16 PM,39.2,35.6,87,29.70,-9999.0,West,10.4,-,N/A,,Overcast,280,2013-03-26 06:16:00
9:36 PM,37.4,35.6,93,29.71,-9999.0,West,8.1,-,N/A,,Overcast,270,2013-03-26 06:36:00
9:56 PM,39.2,35.6,87,29.72,-9999.0,West,9.2,-,N/A,,Overcast,270,2013-03-26 06:56:00
10:16 PM,39.2,35.6,87,29.73,-9999.0,West,6.9,-,N/A,,Overcast,270,2013-03-26 07:16:00
10:36 PM,39.2,33.8,81,29.73,-9999.0,NE,5.8,-,N/A,,Overcast,40,2013-03-26 07:36:00
10:56 PM,37.4,33.8,87,29.74,-9999.0,Calm,Calm,-,N/A,,Unknown,0,2013-03-26 07:56:00
11:16 PM,37.4,33.8,87,29.74,-9999.0,Calm,Calm,-,N/A,,Unknown,0,2013-03-26 08:16:00
11:36 PM,37.4,33.8,87,29.74,-9999.0,Calm,Calm,-,N/A,,Overcast,0,2013-03-26 08:36:00
11:56 PM,35.6,33.8,93,29.74,-9999.0,Calm,Calm,-,N/A,,Unknown,0,2013-03-26 08:56:00